Regional Weather Roundup
Issued by NWS

Home | Current Version | Previous Version | Graphics & Text | Print | Product List | Glossary On
Versions: 1 2 3 4 5 6 7 8 9 10 11 12 13 14 15 16 17 18 19 20 21 22 23 24 25 26 27 28 29 30 31 32 33 34 35 36 37 38 39 40 41 42 43 44 45 46 47 48 49 50
000
ASUS43 KFSD 241602
RWRSD

WEATHER ROUNDUP FOR SOUTH DAKOTA
NATIONAL WEATHER SERVICE SIOUX FALLS SD
1100 AM CDT FRI OCT 24 2014

NOTE: "FAIR" INDICATES FEW OR NO CLOUDS BELOW 12,000 FEET WITH NO
SIGNIFICANT WEATHER AND/OR OBSTRUCTIONS TO VISIBILITY.


SDZ001>005-009-010-012>017-241700-
NORTHWEST AND NORTH CENTRAL SOUTH DAKOTA

CITY           SKY/WX    TMP DP  RH WIND       PRES   REMARKS
FAITH            N/A     64  36  35 W12       29.96R
MOBRIDGE       MOSUNNY   52  42  69 CALM      29.89R HAZE
$$

SDZ012>016-024>037-041>051-057-063-072>074-241700-
SOUTHWEST AND SOUTH CENTRAL SOUTH DAKOTA

CITY           SKY/WX    TMP DP  RH WIND       PRES   REMARKS
RAPID CTY ARPT MOSUNNY   67  36  31 NW9       30.00R
PIERRE         MOSUNNY   55  35  47 W7        29.92R
CUSTER         MOSUNNY   63  29  27 VRB3      30.11R
ELLSWORTH AFB  SUNNY     66  37  33 NW7       30.01R
PHILIP         CLOUDY    54  38  54 W5        29.96R
PINE RIDGE     PTSUNNY   62  35  36 W5        30.03R
SPEARFISH      FAIR      63  32  31 NW7       30.07R
WINNER           N/A     60  36  40 CALM      29.95
$$

SDZ004>011-016>023-039-040-241700-
NORTHEAST SOUTH DAKOTA

CITY           SKY/WX    TMP DP  RH WIND       PRES   REMARKS
ABERDEEN       PTSUNNY   56  43  61 SW3       29.89R
WATERTOWN      CLOUDY    54  49  83 NW3       29.89R
SISSETON         N/A     62  50  64 CALM      29.83S
$$

SDZ017-020-022-023-036>040-048>070-241700-
SOUTHEAST SOUTH DAKOTA

CITY           SKY/WX    TMP DP  RH WIND       PRES   REMARKS
SIOUX FALLS    CLOUDY    58  50  75 NW5       29.90R
HURON          CLOUDY    54  42  64 W3        29.91R
CHAMBERLAIN    PTSUNNY   55  37  52 W7        29.94S
MITCHELL       CLOUDY    55  44  66 NW3       29.93R
YANKTON        CLOUDY    57  46  67 NW8       29.92R
$$

ABBREVIATIONS USED IN REMARKS
   TC - TEMPERATURE IN CELSIUS
  WCI - WIND CHILL INDEX
   HX - HEAT INDEX
  VSB - VISIBILITY




USA.gov is the U.S. government's official web portal to all federal, state and local government web resources and services.